Location: Cheyres
(46.8153°N, 6.7877°E)
Time: 14:22:25
(UTC+00:00)

FENGYUN 1C DEB - Pass Details

Date: 07 December 2021
Orbit: 843 x 915 km, 99.0° (Epoch: 18 January)

Event Time Altitude Azimuth Distance (km) Brightness Sun altitude
Exits shadow 19:59:58 12° 324° (NW) 2,335 ? -42.6°
Drops below altitude 10° 20:00:27 10° 327° (NNW) 2,492 ? -42.7°
Sets 20:03:05 0° 337° (NNW) 3,425 ? -43.2°
